Weather History for Wichita, KS

Change the Weather History Date:

Monday, July 8, 2013

  Actual Average Record
Temperature  
Mean Temperature 89 °F 81 °F  
Max Temperature 102 °F 92 °F 108 °F (1980)
Min Temperature 76 °F 70 °F 55 °F (1952)
Degree Days  
Heating Degree Days 0 0  
Month to date heating degree days 0 0  
Since 1 June heating degree days 3 6  
Since 1 July heating degree days 0 0  
Cooling Degree Days 24 16  
Month to date cooling degree days 109 123  
Year to date cooling degree days 649 588  
Since 1 June cooling degree days 511 452  
Growing Degree Days 38 (Base 50)    
Moisture  
Dew Point 66 °F    
Average Humidity 49    
Maximum Humidity 69    
Minimum Humidity 29    
Precipitation  
Precipitation 0.00 in 0.12 in 3.08 in (1944)
Month to date precipitation 0.03 0.99  
Year to date precipitation 15.88 18.05  
Snow  
Snow 0.00 in 0.00 in 0.00 in (2007)
Month to date snowfall 0.0 0.0  
Since 1 June snowfall 0.0 0.0  
Since 1 July snowfall 0.0 0.0  
Snow Depth 0.00 in    
Sea Level Pressure  
Sea Level Pressure 29.95 in    
Wind  
Wind Speed 13 mph (South)    
Max Wind Speed 24 mph    
Max Gust Speed 31 mph    
Visibility 10 miles    
Events      
T = Trace of Precipitation, MM = Missing Value Source: NWS Daily Summary

Daily Weather History Graph

Daily Weather History Graph

Search for Another Location

Airport:

Trip Planner

Search our weather history database for the weather conditions in past years. The results will help you decide how hot, cold, wet, or windy it might be!

Date:

Astronomy

Jul. 08, 2013 Rise Set
Actual Time 6:15 AM CDT 8:53 PM CDT
Civil Twilight 5:44 AM CDT 9:24 PM CDT
Nautical Twilight 5:06 AM CDT 10:02 PM CDT
Astronomical Twilight 4:23 AM CDT 10:45 PM CDT
Moon 6:44 AM CDT (7/8) 8:59 PM CDT (7/8)
Length of Visible Light 15h 39m
Length of Day
14h 37m
New Moon, 0% of the Moon is Illuminated
Jul 8
New Moon
Jul 15
First Quarter
Jul 22
Full
Jul 29
Last Quarter
Aug 6
New

Hourly Weather History & Observations

Time (CDT) Temp. Heat Index Dew Point Humidity Pressure Visibility Wind Dir Wind Speed Gust Speed Precip Events Conditions
12:53 AM 81.0 °F 83.0 °F 66.0 °F 60% 29.94 in 10.0 mi South 12.7 mph - N/A   Mostly Cloudy
1:53 AM 79.0 °F - 66.0 °F 64% 29.94 in 10.0 mi South 10.4 mph - N/A   Mostly Cloudy
2:53 AM 78.1 °F - 66.0 °F 66% 29.95 in 10.0 mi South 11.5 mph - N/A   Mostly Cloudy
3:53 AM 78.1 °F - 66.0 °F 66% 29.95 in 10.0 mi South 11.5 mph - N/A   Mostly Cloudy
4:53 AM 78.1 °F - 64.9 °F 64% 29.96 in 10.0 mi South 8.1 mph - N/A   Mostly Cloudy
5:53 AM 75.9 °F - 64.9 °F 69% 29.99 in 10.0 mi SE 6.9 mph - N/A   Mostly Cloudy
6:53 AM 77.0 °F - 64.9 °F 66% 29.99 in 10.0 mi SSE 9.2 mph - N/A   Mostly Cloudy
7:53 AM 77.0 °F - 66.0 °F 69% 30.00 in 10.0 mi South 8.1 mph - N/A   Mostly Cloudy
8:53 AM 82.0 °F 84.5 °F 66.9 °F 60% 30.00 in 10.0 mi South 13.8 mph - N/A   Mostly Cloudy
9:53 AM 86.0 °F 89.4 °F 68.0 °F 55% 30.01 in 10.0 mi SSW 16.1 mph - N/A   Scattered Clouds
10:53 AM 91.9 °F 95.9 °F 68.0 °F 45% 30.00 in 10.0 mi SSW 16.1 mph - N/A   Scattered Clouds
11:53 AM 93.9 °F 97.5 °F 66.9 °F 41% 29.98 in 10.0 mi SSW 18.4 mph - N/A   Partly Cloudy
12:53 PM 97.0 °F 99.9 °F 64.9 °F 35% 29.96 in 10.0 mi South 11.5 mph 25.3 mph N/A   Scattered Clouds
1:53 PM 99.0 °F 102.3 °F 64.9 °F 33% 29.94 in 10.0 mi South 12.7 mph 19.6 mph N/A   Scattered Clouds
2:53 PM 100.0 °F 101.8 °F 62.1 °F 29% 29.93 in 10.0 mi South 13.8 mph 26.5 mph N/A   Scattered Clouds
3:53 PM 100.0 °F 101.8 °F 62.1 °F 29% 29.91 in 10.0 mi South 16.1 mph 23.0 mph N/A   Scattered Clouds
4:53 PM 100.0 °F 101.8 °F 62.1 °F 29% 29.91 in 10.0 mi SSW 17.3 mph - N/A   Scattered Clouds
5:53 PM 100.0 °F 103.0 °F 64.0 °F 31% 29.90 in 10.0 mi South 15.0 mph 26.5 mph N/A   Scattered Clouds
6:53 PM 97.0 °F 99.9 °F 64.9 °F 35% 29.89 in 10.0 mi SSE 18.4 mph 25.3 mph N/A   Partly Cloudy
7:53 PM 93.9 °F 97.0 °F 66.0 °F 40% 29.90 in 10.0 mi SSE 13.8 mph - N/A   Partly Cloudy
8:53 PM 90.0 °F 92.8 °F 66.9 °F 46% 29.91 in 10.0 mi SSE 13.8 mph - N/A   Partly Cloudy
9:53 PM 87.1 °F 89.9 °F 66.9 °F 51% 29.93 in 10.0 mi SSE 13.8 mph - N/A   Partly Cloudy
10:53 PM 86.0 °F 88.8 °F 66.9 °F 53% 29.95 in 10.0 mi SSE 12.7 mph - N/A   Partly Cloudy
11:53 PM 84.0 °F 87.8 °F 69.1 °F 61% 29.95 in 10.0 mi South 11.5 mph - N/A   Partly Cloudy